Weather History for New York JFK, NY

Change the Weather History Date:

Saturday, January 5, 2013

  Actual Average Record
Temperature  
Mean Temperature 39 °F 33 °F  
Max Temperature 45 °F 40 °F 62 °F (1950)
Min Temperature 32 °F 27 °F 11 °F (1989)
Degree Days  
Heating Degree Days 26 32  
Month to date heating degree days 159 158  
Since 1 July heating degree days 1710 1827  
Cooling Degree Days 0 0  
Month to date cooling degree days 0 0  
Year to date cooling degree days 0 0  
Moisture  
Dew Point 20 °F    
Average Humidity 53    
Maximum Humidity 69    
Minimum Humidity 37    
Precipitation  
Precipitation 0.00 in 0.11 in 0.95 in (1949)
Month to date precipitation 0.00 0.53  
Year to date precipitation 0.00 0.53  
Snow  
Snow 0.00 in 0.20 in 3.00 in (1980)
Month to date snowfall 0.0 1.0  
Since 1 July snowfall 4.7 5.9  
Snow Depth 0.00 in    
Sea Level Pressure  
Sea Level Pressure 30.21 in    
Wind  
Wind Speed 12 mph (West)    
Max Wind Speed 25 mph    
Max Gust Speed 30 mph    
Visibility 10 miles    
Events      
T = Trace of Precipitation, MM = Missing Value Source: NWS Daily Summary

Daily Weather History Graph

Daily Weather History Graph

Search for Another Location

Airport:

Trip Planner

Search our weather history database for the weather conditions in past years. The results will help you decide how hot, cold, wet, or windy it might be!

Date:

Astronomy

Jan. 05, 2013 Rise Set
Actual Time 7:19 AM EST 4:42 PM EST
Civil Twilight 6:48 AM EST 5:13 PM EST
Nautical Twilight 6:14 AM EST 5:47 PM EST
Astronomical Twilight 5:41 AM EST 6:20 PM EST
Moon 12:21 AM EST (1/5) 11:31 AM EST (1/5)
Length of Visible Light 10h 24m
Length of Day
9h 23m
Last Quarter, 44% of the Moon is Illuminated
Jan 5
Last Quarter
Jan 11
New
Jan 18
First Quarter
Jan 26
Full
Feb 3
Last Quarter

Hourly Weather History & Observations

Time (EST) Temp. Windchill Dew Point Humidity Pressure Visibility Wind Dir Wind Speed Gust Speed Precip Events Conditions
12:51 AM 34.0 °F 24.2 °F 18.0 °F 52% 30.04 in 10.0 mi West 15.0 mph - N/A   Clear
1:51 AM 34.0 °F 23.4 °F 17.1 °F 50% 30.06 in 10.0 mi WNW 17.3 mph 24.2 mph N/A   Clear
2:51 AM 34.0 °F 23.0 °F 16.0 °F 48% 30.09 in 10.0 mi WNW 18.4 mph 26.5 mph N/A   Clear
3:51 AM 33.1 °F 23.4 °F 16.0 °F 50% 30.11 in 10.0 mi WNW 13.8 mph 24.2 mph N/A   Partly Cloudy
4:51 AM 33.1 °F 23.9 °F 16.0 °F 50% 30.13 in 10.0 mi West 12.7 mph - N/A   Scattered Clouds
5:51 AM 33.1 °F 22.6 °F 18.0 °F 54% 30.16 in 10.0 mi West 16.1 mph - N/A   Mostly Cloudy
6:51 AM 33.1 °F 24.9 °F 18.0 °F 54% 30.19 in 10.0 mi West 10.4 mph - N/A   Mostly Cloudy
7:51 AM 33.1 °F 23.4 °F 19.0 °F 56% 30.22 in 10.0 mi West 13.8 mph - N/A   Scattered Clouds
8:51 AM 35.1 °F 26.4 °F 19.9 °F 54% 30.26 in 10.0 mi West 12.7 mph - N/A   Scattered Clouds
9:51 AM 37.0 °F 29.8 °F 19.9 °F 50% 30.27 in 10.0 mi West 10.4 mph - N/A   Scattered Clouds
10:51 AM 41.0 °F 31.6 °F 19.9 °F 43% 30.26 in 10.0 mi NW 20.7 mph 27.6 mph N/A   Scattered Clouds
11:51 AM 43.0 °F 35.1 °F 19.0 °F 38% 30.27 in 10.0 mi NW 17.3 mph 24.2 mph N/A   Scattered Clouds
12:51 PM 44.1 °F 36.8 °F 19.9 °F 38% 30.24 in 10.0 mi NNW 16.1 mph 21.9 mph N/A   Scattered Clouds
1:51 PM 44.1 °F 39.0 °F 19.0 °F 37% 30.24 in 10.0 mi NW 9.2 mph - N/A   Scattered Clouds
2:51 PM 44.1 °F 38.1 °F 19.0 °F 37% 30.25 in 10.0 mi NW 11.5 mph - N/A   Scattered Clouds
3:51 PM 42.1 °F 37.1 °F 19.0 °F 40% 30.25 in 10.0 mi West 8.1 mph - N/A   Scattered Clouds
4:51 PM 39.0 °F 33.4 °F 21.0 °F 49% 30.25 in 10.0 mi West 8.1 mph - N/A   Scattered Clouds
5:51 PM 37.9 °F 33.5 °F 21.0 °F 51% 30.27 in 10.0 mi West 5.8 mph - N/A   Scattered Clouds
6:51 PM 36.0 °F 29.0 °F 25.0 °F 64% 30.28 in 10.0 mi WSW 9.2 mph - N/A   Scattered Clouds
7:51 PM 35.1 °F 28.6 °F 23.0 °F 61% 30.28 in 10.0 mi WSW 8.1 mph - N/A   Scattered Clouds
8:51 PM 34.0 °F 28.8 °F 23.0 °F 64% 30.25 in 10.0 mi WSW 5.8 mph - N/A   Mostly Cloudy
9:51 PM 34.0 °F 28.8 °F 24.1 °F 67% 30.26 in 10.0 mi WSW 5.8 mph - N/A   Mostly Cloudy
10:51 PM 34.0 °F 27.2 °F 24.1 °F 67% 30.24 in 10.0 mi SW 8.1 mph - N/A   Overcast
11:51 PM 35.1 °F 28.6 °F 25.0 °F 67% 30.22 in 10.0 mi SW 8.1 mph - N/A   Overcast